Location: Crescent
(42.8242°N, 73.7329°W)
Time: 03:05:36
(UTC+00:00)

Tiros 1 - Pass Details

Date: 25 February 2026
Orbit: 618 x 649 km, 48.4° (Epoch: 7 March)

Event Time Altitude Azimuth Distance (km) Brightness Sun altitude
Rises 17:26:02 0° 289° (WNW) 2,898 10.4 38.1°
Reaches altitude 10° 17:28:46 10° 274° (W) 1,984 9.8 38.1°
Maximum altitude 17:32:14 22° 224° (SW) 1,361 9.9 38.0°
Drops below altitude 10° 17:35:42 10° 173° (S) 1,970 10.8 37.9°
Sets 17:38:25 0° 158° (SSE) 2,871 11.2 37.8°
